Location: Crescent
(42.8242°N, 73.7329°W)
Time: 20:55:54
(UTC+00:00)

Vanguard 2 Rocket - Pass Details

Date: 24 February 2026
Orbit: 553 x 3286 km, 32.9° (Epoch: 9 March)

Event Time Altitude Azimuth Distance (km) Brightness Sun altitude
Rises 20:00:25 0° 274° (W) 7,180 12.1 24.8°
Reaches altitude 10° 20:05:50 10° 270° (W) 5,976 11.9 24.1°
Maximum altitude 20:21:47 44° 207° (SSW) 2,966 10.7 21.8°
Drops below altitude 10° 20:31:56 10° 139° (SE) 3,875 10.1 20.3°
Sets 20:34:40 0° 132° (SE) 4,544 10.3 19.9°
